Location: Chateh
(58.6667°N, 118.6000°W)
Time: 06:39:39
(UTC+00:00)

Gurwin Techsat 1B - Pass Details

Date: 07 December 2023
Orbit: 810 x 813 km, 98.9° (Epoch: 04 March)

Event Time Altitude Azimuth Distance (km) Brightness Sun altitude
Rises 14:09:44 0° 18° (NNE) 3,352 11.8 -16.2°
Reaches altitude 10° 14:12:55 10° 358° (N) 2,417 10.9 -15.8°
Enters shadow 14:15:42 16° 326° (NW) 2,013 10.2 -15.4°
